EZY21A EGNM-EGJB

Flight info

Callsign EZY21A
Flight time 0h 53m
Altitude 39000
Route POL DCT MCT DCT LISTO L612 HON N859 CPT Y321 PEPIS Q41 ORTAC
Aircraft A319/M-SDE3FGHIRWY/LB1

Departure

Time 2026-04-23 19:08
Airport Leeds Bradford Airport (EGNM)

Arrival

Time 2026-04-23 20:02
Airport Guernsey Airport (EGJB)
Time Latitude Longitude Altitude Speed Heading
2026-04-23 18:55 53.86863 -1.65909 674 ft 0 kts
2026-04-23 18:55 53.86862 -1.65909 674 ft 0 kts
2026-04-23 19:00 53.86861 -1.65909 675 ft 1 kts
2026-04-23 19:01 53.86846 -1.65910 675 ft 2 kts 358°
2026-04-23 19:01 53.86832 -1.65909 675 ft 0 kts 359°
2026-04-23 19:01 53.86822 -1.65907 675 ft 2 kts 329°
2026-04-23 19:01 53.86812 -1.65889 675 ft 2 kts 286°
2026-04-23 19:02 53.86811 -1.65881 675 ft 1 kts 273°
2026-04-23 19:02 53.86811 -1.65869 674 ft 0 kts 270°
2026-04-23 19:03 53.86811 -1.65871 674 ft 0 kts 270°
2026-04-23 19:04 53.86811 -1.65880 674 ft 1 kts 270°
2026-04-23 19:04 53.86813 -1.65907 675 ft 3 kts 274°
2026-04-23 19:04 53.86814 -1.65968 676 ft 6 kts 271°
2026-04-23 19:04 53.86810 -1.66052 676 ft 7 kts 239°
2026-04-23 19:05 53.86760 -1.66098 677 ft 8 kts 220°
2026-04-23 19:05 53.86745 -1.66202 677 ft 10 kts 267°
2026-04-23 19:05 53.86768 -1.66327 677 ft 13 kts 310°
2026-04-23 19:05 53.86849 -1.66452 676 ft 16 kts 318°
2026-04-23 19:06 53.86939 -1.66592 675 ft 18 kts 317°
2026-04-23 19:06 53.87036 -1.66740 674 ft 19 kts 317°
2026-04-23 19:06 53.87139 -1.66896 674 ft 20 kts 319°
2026-04-23 19:06 53.87235 -1.66998 674 ft 14 kts 355°
2026-04-23 19:07 53.87341 -1.66991 674 ft 15 kts 359°
2026-04-23 19:07 53.87397 -1.67112 674 ft 16 kts 244°
2026-04-23 19:07 53.87308 -1.67173 674 ft 16 kts 134°
2026-04-23 19:07 53.87217 -1.67019 674 ft 18 kts 137°
2026-04-23 19:08 53.87021 -1.66721 675 ft 73 kts 137°
2026-04-23 19:08 53.86390 -1.65749 682 ft 148 kts 136°
2026-04-23 19:08 53.85600 -1.64577 1389 ft 149 kts 137°
2026-04-23 19:08 53.84863 -1.63482 2264 ft 144 kts 135°
2026-04-23 19:09 53.84109 -1.62326 2884 ft 154 kts 135°
2026-04-23 19:09 53.83275 -1.61074 3464 ft 168 kts 142°
2026-04-23 19:09 53.82125 -1.60549 4011 ft 189 kts 186°
2026-04-23 19:09 53.80923 -1.61540 4690 ft 203 kts 216°
2026-04-23 19:10 53.79770 -1.63031 5674 ft 202 kts 217°
2026-04-23 19:10 53.78855 -1.64771 6524 ft 206 kts 246°
2026-04-23 19:10 53.78499 -1.67171 7189 ft 220 kts 263°
2026-04-23 19:10 53.78335 -1.69846 7815 ft 238 kts 264°
2026-04-23 19:11 53.78146 -1.72716 8436 ft 256 kts 263°
2026-04-23 19:11 53.77894 -1.75755 9056 ft 274 kts 262°
2026-04-23 19:11 53.77590 -1.78983 9866 ft 283 kts 261°
2026-04-23 19:11 53.77267 -1.82225 10866 ft 286 kts 261°
2026-04-23 19:12 53.77041 -1.84453 11398 ft 293 kts 261°
2026-04-23 19:12 53.76571 -1.89059 12442 ft 304 kts 261°
2026-04-23 19:12 53.76209 -1.92574 13379 ft 307 kts 261°
2026-04-23 19:12 53.75843 -1.96121 14124 ft 314 kts 261°
2026-04-23 19:13 53.75462 -1.99792 14924 ft 320 kts 261°
2026-04-23 19:13 53.75080 -2.03472 15670 ft 326 kts 260°
2026-04-23 19:13 53.74410 -2.07148 16371 ft 333 kts 242°
2026-04-23 19:13 53.72936 -2.10116 17062 ft 340 kts 218°
2026-04-23 19:14 53.70825 -2.11940 17764 ft 346 kts 196°
2026-04-23 19:14 53.68478 -2.12901 18491 ft 350 kts 193°
2026-04-23 19:14 53.66092 -2.13831 19183 ft 355 kts 193°
2026-04-23 19:14 53.63475 -2.14865 19915 ft 360 kts 193°
2026-04-23 19:15 53.61024 -2.15852 20556 ft 366 kts 193°
2026-04-23 19:15 53.58521 -2.16870 21202 ft 370 kts 193°
2026-04-23 19:15 53.56022 -2.17893 21807 ft 375 kts 193°
2026-04-23 19:15 53.53486 -2.18934 22421 ft 380 kts 193°
2026-04-23 19:16 53.50893 -2.19999 23023 ft 385 kts 193°
2026-04-23 19:16 53.48309 -2.21061 23587 ft 390 kts 193°
2026-04-23 19:16 53.45671 -2.22143 24138 ft 395 kts 193°
2026-04-23 19:17 53.40284 -2.24344 25290 ft 402 kts 193°
2026-04-23 19:17 53.37537 -2.25335 25851 ft 405 kts 187°
2026-04-23 19:17 53.34749 -2.25649 26409 ft 407 kts 178°
2026-04-23 19:17 53.31935 -2.25215 26945 ft 408 kts 169°
2026-04-23 19:18 53.29131 -2.24389 27461 ft 411 kts 168°
2026-04-23 19:18 53.26316 -2.23496 27945 ft 415 kts 168°
2026-04-23 19:18 53.23478 -2.22615 28425 ft 418 kts 168°
2026-04-23 19:18 53.20614 -2.21751 28904 ft 421 kts 168°
2026-04-23 19:19 53.14901 -2.19682 29786 ft 427 kts 163°
2026-04-23 19:19 53.12067 -2.18214 30229 ft 428 kts 159°
2026-04-23 19:20 53.06545 -2.14540 31026 ft 433 kts 155°
2026-04-23 19:20 53.03757 -2.12603 31418 ft 436 kts 156°
2026-04-23 19:20 53.00959 -2.10664 31803 ft 438 kts 156°
2026-04-23 19:20 52.98154 -2.08726 32181 ft 440 kts 156°
2026-04-23 19:21 52.95317 -2.06773 32565 ft 441 kts 156°
2026-04-23 19:21 52.89692 -2.02911 33532 ft 438 kts 156°
2026-04-23 19:21 52.86921 -2.01015 33957 ft 437 kts 156°
2026-04-23 19:22 52.84118 -1.99096 34362 ft 436 kts 156°
2026-04-23 19:22 52.81321 -1.97185 34719 ft 436 kts 156°
2026-04-23 19:22 52.75751 -1.93388 35445 ft 433 kts 156°
2026-04-23 19:23 52.72948 -1.91482 35786 ft 432 kts 156°
2026-04-23 19:23 52.70208 -1.89619 36109 ft 431 kts 156°
2026-04-23 19:23 52.67445 -1.87746 36520 ft 429 kts 156°
2026-04-23 19:24 52.61966 -1.84037 37366 ft 426 kts 156°
2026-04-23 19:24 52.59216 -1.82178 37733 ft 426 kts 156°
2026-04-23 19:24 52.53740 -1.78486 38291 ft 427 kts 156°
2026-04-23 19:25 52.48239 -1.74787 38733 ft 430 kts 156°
2026-04-23 19:25 52.42731 -1.71093 39232 ft 431 kts 156°
2026-04-23 19:26 52.37168 -1.67378 39374 ft 432 kts 157°
2026-04-23 19:26 52.34386 -1.65703 39375 ft 432 kts 160°
2026-04-23 19:27 52.20112 -1.58253 39365 ft 432 kts 161°
2026-04-23 19:28 52.08699 -1.52334 39349 ft 432 kts 161°
2026-04-23 19:29 52.00116 -1.47905 39355 ft 432 kts 161°
2026-04-23 19:30 51.91591 -1.43522 39365 ft 432 kts 161°
2026-04-23 19:31 51.83028 -1.39140 39359 ft 433 kts 161°
2026-04-23 19:31 51.77287 -1.36210 39356 ft 432 kts 161°
2026-04-23 19:32 51.71599 -1.33314 39358 ft 432 kts 162°
2026-04-23 19:32 51.65842 -1.30393 39354 ft 432 kts 162°
2026-04-23 19:33 51.60156 -1.27515 39353 ft 432 kts 162°
2026-04-23 19:33 51.51469 -1.23814 39353 ft 432 kts 169°
2026-04-23 19:34 51.45502 -1.22691 39350 ft 433 kts 176°
2026-04-23 19:35 51.36500 -1.22986 39351 ft 434 kts 182°
2026-04-23 19:35 51.30508 -1.23477 39348 ft 435 kts 182°
2026-04-23 19:36 51.24480 -1.23969 39346 ft 435 kts 183°
2026-04-23 19:36 51.18488 -1.25074 39341 ft 435 kts 190°
2026-04-23 19:37 51.12584 -1.27307 39271 ft 433 kts 195°
2026-04-23 19:37 51.09733 -1.28519 38865 ft 429 kts 195°
2026-04-23 19:37 51.06857 -1.29737 38195 ft 429 kts 195°
2026-04-23 19:37 51.03972 -1.30952 37527 ft 428 kts 195°
2026-04-23 19:38 51.01132 -1.32143 36856 ft 428 kts 195°
2026-04-23 19:38 50.98253 -1.33370 36108 ft 429 kts 197°
2026-04-23 19:38 50.95415 -1.34803 35508 ft 432 kts 200°
2026-04-23 19:38 50.92592 -1.36528 34906 ft 433 kts 204°
2026-04-23 19:39 50.89857 -1.38440 34302 ft 436 kts 206°
2026-04-23 19:39 50.87081 -1.40405 33586 ft 438 kts 205°
2026-04-23 19:39 50.84321 -1.42358 32859 ft 441 kts 205°
2026-04-23 19:39 50.81522 -1.44333 32220 ft 441 kts 205°
2026-04-23 19:40 50.78688 -1.46326 31163 ft 451 kts 205°
2026-04-23 19:40 50.75844 -1.48315 30114 ft 459 kts 205°
2026-04-23 19:40 50.72942 -1.50342 29561 ft 453 kts 205°
2026-04-23 19:40 50.70106 -1.52317 29352 ft 439 kts 205°
2026-04-23 19:41 50.67345 -1.54239 29074 ft 428 kts 205°
2026-04-23 19:41 50.64645 -1.56120 28619 ft 423 kts 205°
2026-04-23 19:41 50.62865 -1.57359 28261 ft 420 kts 205°
2026-04-23 19:41 50.59331 -1.59817 27267 ft 423 kts 204°
2026-04-23 19:42 50.56652 -1.61673 26574 ft 423 kts 205°
2026-04-23 19:42 50.53964 -1.63537 26006 ft 420 kts 204°
2026-04-23 19:42 50.51400 -1.65548 25440 ft 416 kts 212°
2026-04-23 19:42 50.49070 -1.68177 24890 ft 412 kts 218°
2026-04-23 19:43 50.46833 -1.70949 24331 ft 409 kts 219°
2026-04-23 19:43 50.44599 -1.73721 23766 ft 406 kts 218°
2026-04-23 19:43 50.42410 -1.76383 23235 ft 403 kts 218°
2026-04-23 19:43 50.40190 -1.79041 22715 ft 399 kts 217°
2026-04-23 19:44 50.37976 -1.81655 22188 ft 396 kts 217°
2026-04-23 19:44 50.35815 -1.84190 21701 ft 393 kts 217°
2026-04-23 19:44 50.33641 -1.86731 21214 ft 389 kts 217°
2026-04-23 19:44 50.31482 -1.89247 20725 ft 386 kts 216°
2026-04-23 19:45 50.29336 -1.91745 20257 ft 382 kts 216°
2026-04-23 19:45 50.27229 -1.94191 19678 ft 383 kts 216°
2026-04-23 19:45 50.25089 -1.96673 18784 ft 391 kts 215°
2026-04-23 19:45 50.22874 -1.99239 17891 ft 398 kts 214°
2026-04-23 19:46 50.20682 -2.01769 17370 ft 392 kts 214°
2026-04-23 19:46 50.18514 -2.04270 17162 ft 380 kts 214°
2026-04-23 19:46 50.16439 -2.06660 16921 ft 369 kts 214°
2026-04-23 19:46 50.14383 -2.09026 16503 ft 364 kts 214°
2026-04-23 19:47 50.13050 -2.10559 16173 ft 363 kts 214°
2026-04-23 19:47 50.10357 -2.13652 15514 ft 360 kts 214°
2026-04-23 19:47 50.08369 -2.15932 15047 ft 357 kts 214°
2026-04-23 19:47 50.06362 -2.18236 14577 ft 355 kts 214°
2026-04-23 19:48 50.04410 -2.20471 14115 ft 353 kts 214°
2026-04-23 19:48 50.02445 -2.22722 13626 ft 350 kts 213°
2026-04-23 19:48 50.00485 -2.24961 13126 ft 348 kts 213°
2026-04-23 19:48 49.98536 -2.27184 12645 ft 346 kts 213°
2026-04-23 19:49 49.96608 -2.29382 12165 ft 343 kts 213°
2026-04-23 19:49 49.94717 -2.31536 11719 ft 339 kts 213°
2026-04-23 19:49 49.92845 -2.33669 11496 ft 327 kts 213°
2026-04-23 19:49 49.91034 -2.35731 11198 ft 320 kts 213°
2026-04-23 19:50 49.89253 -2.37755 10761 ft 317 kts 213°
2026-04-23 19:50 49.87494 -2.39751 10417 ft 311 kts 213°
2026-04-23 19:50 49.85767 -2.41714 10215 ft 301 kts 213°
2026-04-23 19:50 49.84107 -2.43597 9913 ft 296 kts 213°
2026-04-23 19:51 49.82438 -2.45484 9517 ft 295 kts 213°
2026-04-23 19:51 49.80791 -2.47344 9125 ft 293 kts 213°
2026-04-23 19:51 49.79157 -2.49191 8735 ft 292 kts 213°
2026-04-23 19:51 49.77539 -2.51018 8358 ft 290 kts 213°
2026-04-23 19:52 49.76434 -2.52264 8097 ft 289 kts 212°
2026-04-23 19:52 49.74297 -2.54673 7598 ft 286 kts 212°
2026-04-23 19:52 49.72692 -2.56480 7217 ft 285 kts 212°
2026-04-23 19:52 49.71088 -2.58277 6841 ft 283 kts 211°
2026-04-23 19:53 49.69442 -2.59902 6471 ft 279 kts 206°
2026-04-23 19:53 49.67764 -2.61345 6104 ft 277 kts 205°
2026-04-23 19:53 49.66081 -2.62767 5742 ft 275 kts 205°
2026-04-23 19:53 49.64499 -2.64454 5368 ft 278 kts 217°
2026-04-23 19:54 49.63095 -2.66465 5020 ft 277 kts 219°
2026-04-23 19:54 49.61727 -2.68547 4649 ft 276 kts 220°
2026-04-23 19:54 49.60371 -2.70643 4277 ft 275 kts 220°
2026-04-23 19:54 49.59033 -2.72723 3936 ft 272 kts 220°
2026-04-23 19:55 49.57739 -2.74755 3765 ft 263 kts 220°
2026-04-23 19:55 49.56478 -2.76755 3598 ft 255 kts 220°
2026-04-23 19:55 49.55281 -2.78670 3440 ft 247 kts 220°
2026-04-23 19:55 49.54112 -2.80562 3285 ft 239 kts 220°
2026-04-23 19:56 49.52981 -2.82412 3136 ft 232 kts 220°
2026-04-23 19:56 49.51904 -2.84181 2994 ft 225 kts 220°
2026-04-23 19:56 49.50853 -2.85918 2888 ft 216 kts 218°
2026-04-23 19:56 49.49680 -2.87144 2792 ft 195 kts 186°
2026-04-23 19:57 49.48415 -2.87051 2715 ft 180 kts 148°
2026-04-23 19:57 49.47501 -2.85841 2648 ft 172 kts 125°
2026-04-23 19:57 49.47034 -2.84864 2591 ft 166 kts 124°
2026-04-23 19:57 49.46137 -2.83064 2474 ft 155 kts 125°
2026-04-23 19:58 49.45473 -2.81762 2398 ft 154 kts 125°
2026-04-23 19:58 49.44815 -2.80480 2323 ft 154 kts 125°
2026-04-23 19:58 49.44147 -2.79179 2247 ft 154 kts 125°
2026-04-23 19:58 49.43480 -2.77883 2170 ft 154 kts 123°
2026-04-23 19:59 49.43109 -2.76403 2099 ft 152 kts 97°
2026-04-23 19:59 49.43085 -2.74853 2058 ft 141 kts 90°
2026-04-23 19:59 49.43136 -2.73377 1850 ft 136 kts 89°
2026-04-23 19:59 49.43184 -2.71945 1648 ft 131 kts 90°
2026-04-23 20:00 49.43221 -2.70592 1463 ft 124 kts 89°
2026-04-23 20:00 49.43254 -2.69304 1319 ft 119 kts 89°
2026-04-23 20:00 49.43284 -2.68072 1173 ft 116 kts 88°
2026-04-23 20:00 49.43315 -2.66835 988 ft 115 kts 88°
2026-04-23 20:01 49.43337 -2.65607 835 ft 115 kts 86°
2026-04-23 20:01 49.43389 -2.64390 669 ft 114 kts 85°
2026-04-23 20:01 49.43407 -2.63167 519 ft 114 kts 86°
2026-04-23 20:01 49.43442 -2.61976 363 ft 113 kts 85°
2026-04-23 20:02 49.43481 -2.60776 309 ft 100 kts 85°
2026-04-23 20:02 49.43502 -2.60091 326 ft 46 kts 88°
2026-04-23 20:02 49.43510 -2.59664 334 ft 35 kts 87°
2026-04-23 20:02 49.43518 -2.59352 338 ft 20 kts 86°
2026-04-23 20:03 49.43503 -2.59216 338 ft 11 kts 147°
2026-04-23 20:03 49.43427 -2.59196 339 ft 9 kts 178°
2026-04-23 20:03 49.43380 -2.59233 339 ft 8 kts 237°
2026-04-23 20:03 49.43371 -2.59339 338 ft 11 kts 268°
2026-04-23 20:04 49.43367 -2.59473 337 ft 13 kts 266°
2026-04-23 20:04 49.43363 -2.59590 336 ft 5 kts 268°
2026-04-23 20:04 49.43334 -2.59627 335 ft 7 kts 174°
2026-04-23 20:04 49.43276 -2.59623 336 ft 6 kts 178°
2026-04-23 20:05 49.43262 -2.59622 336 ft 1 kts 178°
2026-04-23 20:05 49.43253 -2.59622 336 ft 0 kts 178°